Погода в Сием-Реапе

Камбоджа     13°22′11″N   103°51′05″E
темп.,
°C
ветер,
м/с
пор.,
м/с
влажн.,
%
обл.,
%
осадки,
мм/ч
давл.,
гПа
погр.,
м
4 марта, чт
чт401:00+25зсз35810 1.1 1013147
04:00+25ссз12840 0.0 101274
07:00+25св018114 0.1 101471
10:00+31всв125735 0.1 1015931
13:00+33юв224828 0.1 10121519
16:00+34ююз324213 0.0 10091200
19:00+30ю23537 0.0 100927
22:00+29з33560 0.0 101144
5 марта, пт
пт501:00+26зюз37740 0.0 1011207
04:00+25ю01818 0.0 101161
07:00+26в127514 0.1 1013127
10:00+33ю11530 0.0 1014847
13:00+34юв324710 0.0 10111576
16:00+34ююв43431 0.0 10081175
19:00+30ююв33530 0.0 100939
22:00+28зюз610670 0.0 1012320
6 марта, сб
сб601:00+26з37770 0.0 1012229
04:00+25юз11850 0.0 101175
07:00+25зюз12839 0.0 1013112
10:00+31ю33570 0.0 1015906
13:00+34юв32470 0.0 10111358
16:00+34юв324217 0.0 1008883
19:00+30ююв23569 0.3 100948
22:00+29ююв11570 0.1 101224
7 марта, вс
вс701:00+27з226413 0.1 101146
04:00+26сз11760 0.2 101046
07:00+25вюв35740 0.3 1012209
10:00+33вюв11520 0.0 1014709
13:00+35вюв32400 0.0 10101610
16:00+35ююв44360 0.0 1007692
19:00+30ююз12440 0.0 100824
22:00+29з33460 0.0 101170
8 марта, пн
пн801:00+28з376820 0.0 1011254
04:00+25в377526 2.3 1011206
07:00+26юв137614 2.3 1013207
10:00+31ююв55564 0.0 1015959
13:00+33юв32500 0.0 1011966
16:00+34ююв224013 0.0 10081036
19:00+30ююз124914 0.0 100924
22:00+27зсз510700 0.0 1012396